Home > Weather > Ingolstadt > Past weeks

Flag for Germany Past Weather in Ingolstadt, Bavaria, Germany — Yesterday and Last 2 Weeks

Now
79 °F

Warm.


Feels Like: 80 °F
Forecast: 65 / 78 °F
Wind: 6 mph from West

Location: Ingolstadt Airport

Current Time: Jul 24, 2016 at 3:02:32 PM

Latest Report: Jul 24, 2016 at 2:20 PM


Visibility: 4 mi

Pressure: 30.09 "Hg

Humidity: 58%

Dew Point: 63 °F

Location of IngolstadtLocation

Past Weather in Ingolstadt — Graph

°F

Ingolstadt Temperature Yesterday

Maximum temperature yesterday: 77 °F (at 2:20 PM)
Minimum temperature yesterday: 63 °F (at 5:20 AM)
Average temperature yesterday: 70 °F

High & Low Weather Summary for the Past Weeks

 TemperatureHumidityPressure
High88 °F (Jul 10, 4:20 PM)100% (Jul 12, 3:20 AM)30.33 "Hg (Jul 12, 3:20 AM)
Low50 °F (Jul 15, 5:20 AM)32% (Jul 19, 3:20 PM)29.86 "Hg (Jul 11, 4:20 PM)
Average68 °F73%30.08 "Hg
* Reported Jul 9 1:20 PM — Jul 24 1:20 PM, Ingolstadt, Weather by CustomWeather, © 2016

Note: Actual official high and low records may vary slightly from our data, if they occured in-between our weather recording intervals... More about our weather records

Advertising

Ingolstadt Weather History for the Previous 24 Hours

Scroll right to see more
 ConditionsComfort  
Time TempWeatherWind HumidityBarometerVisibility
1:20 PM
Sun, Jul 24
79 °FWarm.5 mph58%30.09 "Hg4 mi
12:20 PM77 °FWarm.2 mph61%30.09 "Hg3 mi
11:20 AM73 °FMild.5 mph74%30.09 "Hg3 mi
10:20 AM72 °FMild.3 mph78%30.12 "Hg2 mi
9:20 AM68 °FMild.5 mph88%30.12 "Hg2 mi
8:20 AM64 °FMild.6 mph94%30.12 "Hg3 mi
7:20 AM64 °FMild.5 mph94%30.09 "Hg3 mi
6:20 AM64 °FMild.2 mph94%30.09 "Hg2 mi
5:20 AM64 °FMild.2 mph94%30.09 "Hg3 mi
4:20 AM64 °FMild.3 mph94%30.09 "Hg3 mi
3:20 AM64 °FMild.2 mph94%30.09 "Hg3 mi
2:20 AM66 °FMild.6 mph94%30.09 "Hg3 mi
1:20 AM66 °FMild.6 mph94%30.09 "Hg3 mi
12:20 AM66 °FMild.8 mph94%30.09 "Hg2 mi
11:20 PM
Sat, Jul 23
70 °FMild.7 mph83%30.09 "Hg3 mi
10:20 PM70 °FMild.6 mph83%30.07 "Hg3 mi
9:20 PM72 °FMild.1 mph78%30.04 "Hg3 mi
8:20 PM73 °FMild.3 mph69%30.04 "Hg3 mi
7:20 PM75 °FMild.6 mph65%30.04 "Hg3 mi
6:20 PM75 °FMild.9 mph69%30.04 "Hg3 mi
5:20 PM77 °FWarm.6 mph65%30.04 "Hg3 mi
4:20 PM77 °FWarm.7 mph65%30.04 "Hg3 mi
3:20 PM75 °FMild.9 mph69%30.04 "Hg3 mi
Weather by CustomWeather, © 2016

See weather overviewHow to use our weather pages